Hourly Weather Roundup
Issued by NWS Central Illinois

Home | Current Version | Previous Version | Text Only | Print | Product List | Glossary On
Versions: 1 2 3 4 5 6 7 8 9 10 11 12 13 14 15 16 17 18 19 20 21 22 23 24 25 26 27 28 29 30 31 32 33 34 35 36 37 38 39 40 41 42 43 44 45 46 47 48 49 50
034
NZUS43 KILX 022210
HWRILX

AREA WEATHER ROUNDUP
NATIONAL WEATHER SERVICE, LINCOLN IL
400 PM CST FRI DEC 02 2016


CITY           SKY/WX    TMP DP  RH WIND       PRES   REMARKS
BLOOMINGTON    CLOUDY    39  31  72 NW9       30.26R WCI  33
CHAMPAIGN      CLOUDY    40  33  76 W6        30.27R
DANVILLE       CLOUDY    39  33  80 W6        30.23S WCI  35
DECATUR        CLOUDY    41  32  70 W8        30.28R
EFFINGHAM      CLOUDY    41  33  74 W9        30.31R
FLORA          CLOUDY    45  33  62 NW8       30.29R
GALESBURG      CLOUDY    39  31  75 NW8       30.27R WCI  33
JACKSONVILLE   CLOUDY    42  31  64 W7        30.28S
LACON          CLOUDY    39  32  75 NW5       30.26S
LAWRENCEVILLE  CLOUDY    42  31  64 NW6       30.29R
LITCHFIELD     CLOUDY    40  32  73 N6        30.28S
$$


CITY           SKY/WX    TMP DP  RH WIND       PRES   REMARKS
LINCOLN        CLOUDY    42  33  70 CALM      30.27S
MACOMB         CLOUDY    41  33  71 NW9       30.30R
MATTOON        CLOUDY    39  30  70 W9        30.27R WCI  33
MT CARMEL AP   CLOUDY    42  32  67 N5        30.28R
OLNEY-NOBLE AP CLOUDY    43  34  70 NW8       30.29R
PARIS          CLOUDY    39  33  81 W7        30.27F WCI  34
PEORIA         CLOUDY    41  30  65 NW7       30.27R
PONTIAC        CLOUDY    40  37  88 W9        30.26S WCI  34
RANTOUL        CLOUDY    41  35  80 W6        30.26R
SPRINGFIELD    CLOUDY    43  32  65 NW7       30.29R
TAYLORVILLE    CLOUDY    40  31  70 W6        30.29R
$$

...REGIONAL REPORTS...


CITY           SKY/WX    TMP DP  RH WIND       PRES   REMARKS
CHICAGO O`HARE CLOUDY    37  27  67 NW8       30.23R WCI  31
KANKAKEE       CLOUDY    40  32  74 W9        30.25R WCI  33
MOLINE         CLOUDY    38  27  64 NW10      30.27R WCI  31
MOUNT STERLING CLOUDY    42  31  66 NW3       30.27S
MOUNT VERNON   NOT AVBL
PITTSFIELD     MOCLDY    45  31  60 NW5       30.29S
QUINCY         CLOUDY    44  31  60 N5        30.27S
ROCKFORD       CLOUDY    35  25  66 NW8       30.28R WCI  29
$$


CITY           SKY/WX    TMP DP  RH WIND       PRES   REMARKS
BURLINGTON     CLOUDY    40  33  76 N6        30.27S
CEDAR RAPIDS   CLOUDY    35  28  75 N14       30.26F WCI  26
DES MOINES     CLOUDY    40  31  70 NW7       30.29R
KIRKSVILLE     CLEAR     45  29  53 CALM      30.28R
OTTUMWA        CLOUDY    41  30  65 N8        30.29R
ST LOUIS       PTCLDY    47  28  47 NW6       30.29R
$$


CITY           SKY/WX    TMP DP  RH WIND       PRES   REMARKS
TERRE HAUTE    CLOUDY    41  30  65 W9        30.27R
EVANSVILLE     PTCLDY    44  30  57 NW7       30.29R
INDIANAPOLIS   CLOUDY    40  32  73 W10       30.24S WCI  33
LAFAYETTE      LGT RAIN  37  33  85 W8        30.25R WCI  31
MADISON        CLOUDY    32  22  66 N6        30.24R WCI  26
MILWAUKEE      CLOUDY    35  22  58 W9        30.22R WCI  28
$$






USA.gov is the U.S. government's official web portal to all federal, state and local government web resources and services.